Location: Cossonay
(46.5833°N, 6.4167°E)
Time: 21:39:47
(UTC+00:00)

CBERS-1 - Pass Details

Date: 01 October 2020
Orbit: 770 x 777 km, 98.6° (Epoch: 22 October)

Event Time Altitude Azimuth Distance (km) Brightness Sun altitude
Rises 01:51:40 0° 15° (NNE) 3,258 8.0 -36.2°
Reaches altitude 10° 01:53:59 10° 17° (NNE) 2,328 7.1 -35.9°
Enters shadow 01:56:26 29° 22° (NNE) 1,401 5.7 -35.6°
